Time,TemperatureF,DewpointF,PressureIn,WindDirection,WindDirectionDegrees,WindSpeedMPH,WindSpeedGustMPH,Humidity,HourlyPrecipIn,Conditions,Clouds,dailyrainin,SolarRadiationWatts/m^2,SoftwareType,DateUTC
2013-01-21 00:03:00,62.0,53.0,-100.00,ESE,103,0.0,1.0,72,0.00,,,0.00,0.000000,,2013-01-21 00:03:00,
2013-01-21 00:13:00,62.0,53.0,-100.00,ESE,103,0.0,1.0,72,0.00,,,0.00,0.000000,,2013-01-21 00:13:00,
2013-01-21 00:22:00,62.0,53.0,-100.00,ESE,103,0.0,1.0,72,0.00,,,0.00,0.000000,,2013-01-21 00:22:00,
2013-01-21 00:32:00,62.0,53.0,-100.00,ESE,103,0.0,1.0,72,0.00,,,0.00,0.000000,,2013-01-21 00:32:00,
2013-01-21 00:53:00,61.0,53.0,-100.00,East,91,1.0,1.0,76,0.00,,,0.00,0.000000,,2013-01-21 00:53:00,
2013-01-21 01:03:00,61.0,53.0,-100.00,East,91,1.0,1.0,76,0.00,,,0.00,0.000000,,2013-01-21 01:03:00,
2013-01-21 01:12:00,61.0,53.0,-100.00,East,91,1.0,1.0,76,0.00,,,0.00,0.000000,,2013-01-21 01:12:00,
2013-01-21 01:22:00,61.0,53.0,-100.00,East,91,1.0,1.0,76,0.00,,,0.00,0.000000,,2013-01-21 01:22:00,
2013-01-21 01:32:00,61.0,53.0,-100.00,East,91,1.0,1.0,76,0.00,,,0.00,0.000000,,2013-01-21 01:32:00,
2013-01-21 02:03:00,61.0,53.0,-100.00,East,86,0.0,0.0,74,0.00,,,0.00,0.000000,,2013-01-21 02:03:00,
2013-01-21 02:12:00,61.0,53.0,-100.00,East,86,0.0,0.0,74,0.00,,,0.00,0.000000,,2013-01-21 02:12:00,
2013-01-21 02:22:00,61.0,53.0,-100.00,East,86,0.0,0.0,74,0.00,,,0.00,0.000000,,2013-01-21 02:22:00,
2013-01-21 02:32:00,61.0,53.0,-100.00,East,86,0.0,0.0,74,0.00,,,0.00,0.000000,,2013-01-21 02:32:00,
2013-01-21 02:53:00,60.0,53.0,-100.00,ENE,74,0.0,0.0,77,0.00,,,0.00,0.000000,,2013-01-21 02:53:00,
2013-01-21 03:02:00,60.0,53.0,-100.00,ENE,74,0.0,0.0,77,0.00,,,0.00,0.000000,,2013-01-21 03:02:00,
2013-01-21 03:12:00,60.0,53.0,-100.00,ENE,74,0.0,0.0,77,0.00,,,0.00,0.000000,,2013-01-21 03:12:00,
2013-01-21 03:23:00,60.0,53.0,-100.00,ENE,74,0.0,0.0,77,0.00,,,0.00,0.000000,,2013-01-21 03:23:00,
2013-01-21 03:32:00,60.0,53.0,-100.00,ENE,74,0.0,0.0,77,0.00,,,0.00,0.000000,,2013-01-21 03:32:00,
2013-01-21 03:53:00,60.0,53.0,-100.00,ENE,73,0.0,0.0,79,0.00,,,0.00,0.000000,,2013-01-21 03:53:00,
2013-01-21 04:02:00,60.0,53.0,-100.00,ENE,73,0.0,0.0,79,0.00,,,0.00,0.000000,,2013-01-21 04:02:00,
2013-01-21 04:12:00,60.0,53.0,-100.00,ENE,73,0.0,0.0,79,0.00,,,0.00,0.000000,,2013-01-21 04:12:00,
2013-01-21 04:22:00,60.0,53.0,-100.00,ENE,73,0.0,0.0,79,0.00,,,0.00,0.000000,,2013-01-21 04:22:00,
2013-01-21 04:32:00,60.0,53.0,-100.00,ENE,73,0.0,0.0,79,0.00,,,0.00,0.000000,,2013-01-21 04:32:00,
2013-01-21 04:53:00,58.0,54.0,-100.00,NE,53,0.0,0.0,85,0.00,,,0.00,0.000000,,2013-01-21 04:53:00,
2013-01-21 05:03:00,58.0,54.0,-100.00,NE,53,0.0,0.0,85,0.00,,,0.00,0.000000,,2013-01-21 05:03:00,
2013-01-21 05:12:00,58.0,54.0,-100.00,NE,53,0.0,0.0,85,0.00,,,0.00,0.000000,,2013-01-21 05:12:00,
2013-01-21 05:22:00,58.0,54.0,-100.00,NE,53,0.0,0.0,85,0.00,,,0.00,0.000000,,2013-01-21 05:22:00,
2013-01-21 05:33:00,58.0,54.0,-100.00,NE,53,0.0,0.0,85,0.00,,,0.00,0.000000,,2013-01-21 05:33:00,
2013-01-21 05:53:00,58.0,54.0,-100.00,ENE,75,0.0,0.0,86,0.00,,,0.00,0.000000,,2013-01-21 05:53:00,
2013-01-21 06:02:00,58.0,54.0,-100.00,ENE,75,0.0,0.0,86,0.00,,,0.00,0.000000,,2013-01-21 06:02:00,
2013-01-21 06:12:00,58.0,54.0,-100.00,ENE,75,0.0,0.0,86,0.00,,,0.00,0.000000,,2013-01-21 06:12:00,
2013-01-21 06:23:00,58.0,54.0,-100.00,ENE,75,0.0,0.0,86,0.00,,,0.00,0.000000,,2013-01-21 06:23:00,
2013-01-21 06:32:00,58.0,54.0,-100.00,ENE,75,0.0,0.0,86,0.00,,,0.00,0.000000,,2013-01-21 06:32:00,
2013-01-21 06:53:00,59.0,54.0,-100.00,ENE,63,0.0,0.0,84,0.00,,,-99.99,0.000000,,2013-01-21 06:53:00,
2013-01-21 07:03:00,59.0,54.0,-100.00,ENE,63,0.0,0.0,84,0.00,,,-99.99,0.000000,,2013-01-21 07:03:00,
2013-01-21 07:12:00,59.0,54.0,-100.00,ENE,63,0.0,0.0,84,0.00,,,-99.99,0.000000,,2013-01-21 07:12:00,
2013-01-21 07:22:00,59.0,54.0,-100.00,ENE,63,0.0,0.0,84,0.00,,,-99.99,0.000000,,2013-01-21 07:22:00,
2013-01-21 07:32:00,59.0,54.0,-100.00,ENE,63,0.0,0.0,84,0.00,,,-99.99,0.000000,,2013-01-21 07:32:00,
2013-01-21 07:53:00,59.0,55.0,-100.00,ENE,68,0.0,0.0,86,0.00,,,0.00,0.000000,,2013-01-21 07:53:00,
2013-01-21 08:02:00,59.0,55.0,-100.00,ENE,68,0.0,0.0,86,0.00,,,0.00,0.000000,,2013-01-21 08:02:00,
2013-01-21 08:13:00,59.0,55.0,-100.00,ENE,68,0.0,0.0,86,0.00,,,0.00,0.000000,,2013-01-21 08:13:00,
2013-01-21 08:22:00,59.0,55.0,-100.00,ENE,68,0.0,0.0,86,0.00,,,0.00,0.000000,,2013-01-21 08:22:00,
2013-01-21 08:32:00,59.0,55.0,-100.00,ENE,68,0.0,0.0,86,0.00,,,0.00,0.000000,,2013-01-21 08:32:00,
2013-01-21 08:53:00,58.0,54.0,-100.00,ENE,62,0.0,0.0,86,0.00,,,0.00,0.000000,,2013-01-21 08:53:00,
2013-01-21 09:02:00,58.0,54.0,-100.00,ENE,62,0.0,0.0,86,0.00,,,0.00,0.000000,,2013-01-21 09:02:00,
2013-01-21 09:12:00,58.0,54.0,-100.00,ENE,62,0.0,0.0,86,0.00,,,0.00,0.000000,,2013-01-21 09:12:00,
2013-01-21 09:22:00,58.0,54.0,-100.00,ENE,62,0.0,0.0,86,0.00,,,0.00,0.000000,,2013-01-21 09:22:00,
2013-01-21 09:32:00,58.0,54.0,-100.00,ENE,62,0.0,0.0,86,0.00,,,0.00,0.000000,,2013-01-21 09:32:00,
2013-01-21 09:53:00,58.0,54.0,-100.00,NE,54,0.0,0.0,86,0.00,,,-99.99,0.000000,,2013-01-21 09:53:00,
2013-01-21 10:02:00,58.0,54.0,-100.00,NE,54,0.0,0.0,86,0.00,,,-99.99,0.000000,,2013-01-21 10:02:00,
2013-01-21 10:12:00,58.0,54.0,-100.00,NE,54,0.0,0.0,86,0.00,,,-99.99,0.000000,,2013-01-21 10:12:00,
2013-01-21 10:22:00,58.0,54.0,-100.00,NE,54,0.0,0.0,86,0.00,,,-99.99,0.000000,,2013-01-21 10:22:00,
2013-01-21 10:32:00,58.0,54.0,-100.00,NE,54,0.0,0.0,86,0.00,,,-99.99,0.000000,,2013-01-21 10:32:00,
2013-01-21 10:53:00,58.0,54.0,-100.00,NE,55,0.0,0.0,85,0.00,,,0.00,0.000000,,2013-01-21 10:53:00,
2013-01-21 11:02:00,58.0,54.0,-100.00,NE,55,0.0,0.0,85,0.00,,,0.00,0.000000,,2013-01-21 11:02:00,
2013-01-21 11:12:00,58.0,54.0,-100.00,NE,55,0.0,0.0,85,0.00,,,0.00,0.000000,,2013-01-21 11:12:00,
2013-01-21 11:22:00,58.0,54.0,-100.00,NE,55,0.0,0.0,85,0.00,,,0.00,0.000000,,2013-01-21 11:22:00,
2013-01-21 11:32:00,58.0,54.0,-100.00,NE,55,0.0,0.0,85,0.00,,,0.00,0.000000,,2013-01-21 11:32:00,
2013-01-21 12:02:00,58.0,54.0,-100.00,ENE,60,0.0,0.0,85,0.00,,,0.00,0.000000,,2013-01-21 12:02:00,
2013-01-21 12:12:00,58.0,54.0,-100.00,ENE,60,0.0,0.0,85,0.00,,,0.00,0.000000,,2013-01-21 12:12:00,
2013-01-21 12:22:00,58.0,54.0,-100.00,ENE,60,0.0,0.0,85,0.00,,,0.00,0.000000,,2013-01-21 12:22:00,
2013-01-21 12:32:00,58.0,54.0,-100.00,ENE,60,0.0,0.0,85,0.00,,,0.00,0.000000,,2013-01-21 12:32:00,
2013-01-21 12:53:00,59.0,54.0,-100.00,NE,46,0.0,0.0,84,0.00,,,0.00,0.000000,,2013-01-21 12:53:00,
2013-01-21 13:02:00,59.0,54.0,-100.00,NE,46,0.0,0.0,84,0.00,,,0.00,0.000000,,2013-01-21 13:02:00,
2013-01-21 13:12:00,59.0,54.0,-100.00,NE,46,0.0,0.0,84,0.00,,,0.00,0.000000,,2013-01-21 13:12:00,
2013-01-21 13:22:00,59.0,54.0,-100.00,NE,46,0.0,0.0,84,0.00,,,0.00,0.000000,,2013-01-21 13:22:00,
2013-01-21 13:32:00,59.0,54.0,-100.00,NE,46,0.0,0.0,84,0.00,,,0.00,0.000000,,2013-01-21 13:32:00,
2013-01-21 13:53:00,59.0,55.0,-100.00,ENE,60,0.0,0.0,86,0.00,,,0.00,0.000000,,2013-01-21 13:53:00,
2013-01-21 14:03:00,59.0,55.0,-100.00,ENE,60,0.0,0.0,86,0.00,,,0.00,0.000000,,2013-01-21 14:03:00,
2013-01-21 14:12:00,59.0,55.0,-100.00,ENE,60,0.0,0.0,86,0.00,,,0.00,0.000000,,2013-01-21 14:12:00,
2013-01-21 14:22:00,59.0,55.0,-100.00,ENE,60,0.0,0.0,86,0.00,,,0.00,0.000000,,2013-01-21 14:22:00,
2013-01-21 14:32:00,59.0,55.0,-100.00,ENE,60,0.0,0.0,86,0.00,,,0.00,0.000000,,2013-01-21 14:32:00,
2013-01-21 14:53:00,59.0,55.0,-100.00,ENE,71,0.0,0.0,88,0.00,,,0.00,0.000000,,2013-01-21 14:53:00,
2013-01-21 15:03:00,59.0,55.0,-100.00,ENE,71,0.0,0.0,88,0.00,,,0.00,0.000000,,2013-01-21 15:03:00,
2013-01-21 15:13:00,59.0,55.0,-100.00,ENE,71,0.0,0.0,88,0.00,,,0.00,0.000000,,2013-01-21 15:13:00,
2013-01-21 15:22:00,59.0,55.0,-100.00,ENE,71,0.0,0.0,88,0.00,,,0.00,0.000000,,2013-01-21 15:22:00,
2013-01-21 15:32:00,59.0,55.0,-100.00,ENE,71,0.0,0.0,88,0.00,,,0.00,0.000000,,2013-01-21 15:32:00,
2013-01-21 15:53:00,59.0,56.0,-100.00,ENE,66,0.0,0.0,91,0.00,,,-99.99,0.000000,,2013-01-21 15:53:00,
2013-01-21 16:03:00,59.0,56.0,-100.00,ENE,66,0.0,0.0,91,0.00,,,-99.99,0.000000,,2013-01-21 16:03:00,
2013-01-21 16:12:00,59.0,56.0,-100.00,ENE,66,0.0,0.0,91,0.00,,,-99.99,0.000000,,2013-01-21 16:12:00,
2013-01-21 16:23:00,59.0,56.0,-100.00,ENE,66,0.0,0.0,91,0.00,,,-99.99,0.000000,,2013-01-21 16:23:00,
2013-01-21 16:32:00,59.0,56.0,-100.00,ENE,66,0.0,0.0,91,0.00,,,-99.99,0.000000,,2013-01-21 16:32:00,
2013-01-21 16:53:00,59.0,55.0,-100.00,NE,53,0.0,0.0,87,0.00,,,-99.99,0.000000,,2013-01-21 16:53:00,
2013-01-21 17:02:00,59.0,55.0,-100.00,NE,53,0.0,0.0,87,0.00,,,-99.99,0.000000,,2013-01-21 17:02:00,
2013-01-21 17:12:00,59.0,55.0,-100.00,NE,53,0.0,0.0,87,0.00,,,-99.99,0.000000,,2013-01-21 17:12:00,
2013-01-21 17:22:00,59.0,55.0,-100.00,NE,53,0.0,0.0,87,0.00,,,-99.99,0.000000,,2013-01-21 17:22:00,
2013-01-21 17:33:00,59.0,55.0,-100.00,NE,53,0.0,0.0,87,0.00,,,-99.99,0.000000,,2013-01-21 17:33:00,
2013-01-21 17:53:00,60.0,55.0,-100.00,NE,55,0.0,0.0,85,0.00,,,0.00,0.000000,,2013-01-21 17:53:00,
2013-01-21 18:02:00,60.0,55.0,-100.00,NE,55,0.0,0.0,85,0.00,,,0.00,0.000000,,2013-01-21 18:02:00,
2013-01-21 18:12:00,60.0,55.0,-100.00,NE,55,0.0,0.0,85,0.00,,,0.00,0.000000,,2013-01-21 18:12:00,
2013-01-21 18:22:00,60.0,55.0,-100.00,NE,55,0.0,0.0,85,0.00,,,0.00,0.000000,,2013-01-21 18:22:00,
2013-01-21 18:33:00,60.0,55.0,-100.00,NE,55,0.0,0.0,85,0.00,,,0.00,0.000000,,2013-01-21 18:33:00,
2013-01-21 18:53:00,60.0,55.0,-100.00,NE,35,0.0,0.0,84,0.00,,,0.00,0.000000,,2013-01-21 18:53:00,
2013-01-21 19:03:00,60.0,55.0,-100.00,NE,35,0.0,0.0,84,0.00,,,0.00,0.000000,,2013-01-21 19:03:00,
2013-01-21 19:12:00,60.0,55.0,-100.00,NE,35,0.0,0.0,84,0.00,,,0.00,0.000000,,2013-01-21 19:12:00,
2013-01-21 19:22:00,60.0,55.0,-100.00,NE,35,0.0,0.0,84,0.00,,,0.00,0.000000,,2013-01-21 19:22:00,
2013-01-21 19:32:00,60.0,55.0,-100.00,NE,35,0.0,0.0,84,0.00,,,0.00,0.000000,,2013-01-21 19:32:00,
2013-01-21 19:53:00,60.0,55.0,-100.00,NNE,31,0.0,0.0,84,0.00,,,0.00,0.000000,,2013-01-21 19:53:00,
2013-01-21 20:03:00,60.0,55.0,-100.00,NNE,31,0.0,0.0,84,0.00,,,0.00,0.000000,,2013-01-21 20:03:00,
2013-01-21 20:12:00,60.0,55.0,-100.00,NNE,31,0.0,0.0,84,0.00,,,0.00,0.000000,,2013-01-21 20:12:00,
2013-01-21 20:22:00,60.0,55.0,-100.00,NNE,31,0.0,0.0,84,0.00,,,0.00,0.000000,,2013-01-21 20:22:00,
2013-01-21 20:32:00,60.0,55.0,-100.00,NNE,31,0.0,0.0,84,0.00,,,0.00,0.000000,,2013-01-21 20:32:00,
2013-01-21 20:53:00,61.0,55.0,-100.00,NE,43,0.0,0.0,81,0.00,,,0.00,0.000000,,2013-01-21 20:53:00,
2013-01-21 21:03:00,61.0,55.0,-100.00,NE,43,0.0,0.0,81,0.00,,,0.00,0.000000,,2013-01-21 21:03:00,
2013-01-21 21:12:00,61.0,55.0,-100.00,NE,43,0.0,0.0,81,0.00,,,0.00,0.000000,,2013-01-21 21:12:00,
2013-01-21 21:22:00,61.0,55.0,-100.00,NE,43,0.0,0.0,81,0.00,,,0.00,0.000000,,2013-01-21 21:22:00,
2013-01-21 21:32:00,61.0,55.0,-100.00,NE,43,0.0,0.0,81,0.00,,,0.00,0.000000,,2013-01-21 21:32:00,
2013-01-21 22:03:00,61.0,56.0,-100.00,NNE,25,0.0,0.0,85,0.00,,,0.00,0.000000,,2013-01-21 22:03:00,
2013-01-21 22:12:00,61.0,56.0,-100.00,NNE,25,0.0,0.0,85,0.00,,,0.00,0.000000,,2013-01-21 22:12:00,
2013-01-21 22:22:00,61.0,56.0,-100.00,NNE,25,0.0,0.0,85,0.00,,,0.00,0.000000,,2013-01-21 22:22:00,
2013-01-21 22:32:00,61.0,56.0,-100.00,NNE,25,0.0,0.0,85,0.00,,,0.00,0.000000,,2013-01-21 22:32:00,
2013-01-21 22:53:00,61.0,57.0,-100.00,NNE,19,0.0,0.0,88,0.00,,,0.00,0.000000,,2013-01-21 22:53:00,
2013-01-21 23:03:00,61.0,57.0,-100.00,NNE,19,0.0,0.0,88,0.00,,,0.00,0.000000,,2013-01-21 23:03:00,
2013-01-21 23:12:00,61.0,57.0,-100.00,NNE,19,0.0,0.0,88,0.00,,,0.00,0.000000,,2013-01-21 23:12:00,
2013-01-21 23:22:00,61.0,57.0,-100.00,NNE,19,0.0,0.0,88,0.00,,,0.00,0.000000,,2013-01-21 23:22:00,
2013-01-21 23:32:00,61.0,57.0,-100.00,NNE,19,0.0,0.0,88,0.00,,,0.00,0.000000,,2013-01-21 23:32:00,